Location: Auckland
(36.8670°S, 174.7670°E)
Time: 21:20:56
(UTC+13:00)

Cosmos 841 Rocket - Pass Details

Date: 24 January 2019
Orbit: 746 x 773 km, 74.0° (Epoch: 17 October)

Event Time Altitude Azimuth Distance (km) Brightness Sun altitude
Rises 22:53:00 0° 204° (SSW) 3,284 8.0 -22.4°
Reaches altitude 10° 22:55:27 10° 208° (SSW) 2,349 7.1 -22.7°
Maximum altitude 23:00:38 53° 283° (WNW) 957 4.1 -23.4°
Enters shadow 23:02:21 37° 336° (NNW) 1,188 4.2 -23.6°
